Franklin, PA

7:18 AM EST on November 17, 2019 (GMT -0500)
Venango Regional

Weather History for KFKL - June, 2019

Change the Weather History Date:

Sunday, June 9, 2019

  Actual Average Record
Temperature  
Mean Temperature 69 °F -  
Max Temperature 79 °F 78 °F 99 °F (1933)
Min Temperature 59 °F 51 °F 35 °F (1977)
Cooling Degree Days 4    
Growing Degree Days 19 (Base 50)    
Moisture  
Dew Point 55 °F    
Average Humidity 63    
Maximum Humidity 81    
Minimum Humidity 52    
Precipitation  
Precipitation 0.00 in - - ()
Sea Level Pressure  
Sea Level Pressure 30.14 in    
Wind  
Wind Speed 12 mph (ESE)    
Max Wind Speed 20 mph    
Max Gust Speed 26 mph    
Visibility 10 miles    
Events      
Averages and records for this station are not official NWS values.
T = Trace of Precipitation, MM = Missing Value Source: NWS Daily Summary

Daily Weather History Graph

Daily Weather History Graph

Search for Another Location

Airport or City:

Astronomy

Jun. 09, 2019 Rise Set
Actual Time 5:45 AM EDT 8:51 PM EDT
Civil Twilight 5:12 AM EDT 9:25 PM EDT
Nautical Twilight 4:29 AM EDT 10:08 PM EDT
Astronomical Twilight 3:38 AM EDT 10:59 PM EDT
Moon 12:25 PM EDT (6/9) 1:28 AM EDT (6/9)
Length of Visible Light 16h 13m
Length of Day
15h 05m
Waxing Crescent, 43% of the Moon is Illuminated
Jun 9
Waxing Crescent
Jun 10
First Quarter
Jun 17
Full
Jun 25
Last Quarter
Jul 2
New

Hourly Weather History & Observations

Time (EDT) Temp. Dew Point Humidity Pressure Visibility Wind Dir Wind Speed Gust Speed Precip Events Conditions
12:56 AM 64.9 °F 54.0 °F 68% 30.14 in 10.0 mi ESE 9.2 mph - N/A   Clear
1:56 AM 63.0 °F 53.1 °F 70% 30.13 in 10.0 mi ESE 8.1 mph - N/A   Clear
2:56 AM 62.1 °F 52.0 °F 70% 30.13 in 10.0 mi ESE 10.4 mph - N/A   Clear
3:56 AM 62.1 °F 53.1 °F 72% 30.13 in 10.0 mi ESE 12.7 mph - N/A   Clear
4:56 AM 61.0 °F 53.1 °F 75% 30.13 in 10.0 mi East 8.1 mph - N/A   Clear
5:56 AM 59.0 °F 53.1 °F 81% 30.14 in 10.0 mi East 8.1 mph - N/A   Clear
6:56 AM 60.1 °F 53.1 °F 78% 30.15 in 10.0 mi East 9.2 mph - N/A   Clear
7:56 AM 64.0 °F 53.1 °F 67% 30.17 in 10.0 mi ESE 16.1 mph 23.0 mph N/A   Mostly Cloudy
8:56 AM 64.9 °F 53.1 °F 65% 30.18 in 10.0 mi ESE 11.5 mph 18.4 mph N/A   Overcast
9:56 AM 66.9 °F 55.0 °F 66% 30.18 in 10.0 mi ESE 12.7 mph - N/A   Scattered Clouds
10:56 AM 70.0 °F 54.0 °F 57% 30.18 in 10.0 mi SE 19.6 mph 26.5 mph N/A   Clear
11:56 AM 73.0 °F 55.9 °F 55% 30.17 in 10.0 mi SE 15.0 mph 21.9 mph N/A   Clear
12:56 PM 75.9 °F 57.0 °F 52% 30.17 in 10.0 mi SE 13.8 mph 21.9 mph N/A   Scattered Clouds
1:56 PM 73.0 °F 55.9 °F 55% 30.16 in 10.0 mi SE 12.7 mph - N/A   Clear
2:56 PM 75.0 °F 57.9 °F 55% 30.14 in 10.0 mi SE 15.0 mph - N/A   Clear
3:56 PM 78.1 °F 59.0 °F 52% 30.13 in 10.0 mi SE 16.1 mph 23.0 mph N/A   Clear
4:56 PM 79.0 °F 60.1 °F 52% 30.11 in 10.0 mi ESE 13.8 mph - N/A   Scattered Clouds
5:56 PM 75.9 °F 57.9 °F 54% 30.11 in 10.0 mi SE 17.3 mph 25.3 mph N/A   Clear
6:56 PM 75.0 °F 57.9 °F 55% - 10.0 mi SE 18.4 mph 24.2 mph N/A   Mostly Cloudy
7:56 PM 73.0 °F 57.0 °F 57% 30.12 in 10.0 mi SSE 13.8 mph - N/A   Overcast
8:56 PM 70.0 °F 57.0 °F 63% 30.12 in 10.0 mi ESE 12.7 mph - N/A   Scattered Clouds
9:56 PM 68.0 °F 57.0 °F 68% 30.10 in 10.0 mi ESE 9.2 mph - N/A   Partly Cloudy
10:56 PM 66.9 °F 57.0 °F 70% 30.09 in 10.0 mi SE 8.1 mph - N/A   Partly Cloudy
11:56 PM 66.9 °F 55.0 °F 66% 30.08 in 10.0 mi SE 12.7 mph 20.7 mph N/A   Mostly Cloudy